Regional Weather Roundup
Issued by NWS Charleston, SC

Home | Current Version | Previous Version | Text Only | Print | Product List | Glossary On
Versions: 1 2 3 4 5 6 7 8 9 10 11 12 13 14 15 16 17 18 19 20 21 22 23 24 25 26 27 28 29 30 31 32 33 34 35 36 37 38 39 40 41 42 43 44 45 46 47 48 49 50
000
ASUS42 KCHS 280328
RWRCHS

REGIONAL WEATHER ROUNDUP
NATIONAL WEATHER SERVICE CHARLESTON SC
1100 PM EDT TUE SEP 27 2016

NOTE: "FAIR" INDICATES FEW OR NO CLOUDS BELOW 12,000 FEET WITH NO
SIGNIFICANT WEATHER AND/OR OBSTRUCTIONS TO VISIBILITY.

NOT ALL STATIONS ARE QUALITY CONTROLLED. USE DATA WITH CAUTION...
ESPECIALLY DEWPOINT OBSERVATIONS.

SCZ027-030-031-034>040-042>050-280400-
...SOUTHEAST SOUTH CAROLINA...

CITY           SKY/WX    TMP DP  RH WIND       PRES   REMARKS
N CHARLESTON   PTCLDY    74  70  87 SW3       29.92R
WATERFRONT PRK   N/A     78  73  84 VRB2      29.90R
MOUNT PLEASANT FAIR      72  72 100 CALM      29.93R
JOHNS ISLAND   FAIR      72  72 100 CALM      29.93R
PINOPOLIS        N/A     75  72  88 CALM      29.85R
MONCKS CORNER  FAIR      70  68  94 CALM      29.92F
SUMMERVILLE    FAIR      72  72 100 CALM      29.93S
BEAUFORT MCAS  PTCLDY    75  72  90 CALM      29.92S
BEAUFORT ARPT  FAIR      73  72  94 CALM      29.92S
HILTON HEAD IS CLOUDY    73  73 100 CALM      29.94R
WALTERBORO     PTCLDY    73 N/A N/A S3        29.93F
ALLENDALE      FAIR      73  72  94 S5        29.91S

...SOUTHERN MIDLANDS AND PEE DEE...

CITY           SKY/WX    TMP DP  RH WIND       PRES   REMARKS
GEORGETOWN     FAIR      68  68 100 CALM      29.93S
KINGSTREE      FAIR      72  68  88 SE5       29.91S
ORANGEBURG     CLEAR     74  71  91 S6        29.91S
BARNWELL       NOT AVBL
AIKEN          FAIR      70  64  83 S3        29.96R THUNDER
MANNING        FAIR      70  70 100 S3        29.91S
COLUMBIA       CLOUDY    76  69  79 SW6       29.89F
SUMTER         PTCLDY    73  68  84 S6        29.87F
FLORENCE       CLOUDY    76  71  85 S6        29.90S
MYRTLE BEACH   CLEAR     73  63  68 CALM      29.93R
N MYRTLE BEACH PTCLDY    72  70  93 CALM      29.91R

$$

GAZ063-065-086>088-099>101-113>116-118-119-134>141-150-280400-
...SOUTHEAST GEORGIA...

CITY           SKY/WX    TMP DP  RH WIND       PRES   REMARKS
SAVANNAH ARPT  PTCLDY    76  71  85 CALM      29.93R
HUNTER AAF     PTCLDY    74  74 100 VRB2      29.91R
FORT STEWART   CLEAR     73  70  90 CALM      29.91R
STATESBORO     CLEAR     72  71  97 CALM      29.93R
SYLVANIA       NOT AVBL
CLAXTON        FAIR      71  71 100 CALM      29.94R

...CSRA...CENTRAL AND FAR SOUTHEAST GEORGIA...

CITY           SKY/WX    TMP DP  RH WIND       PRES   REMARKS
THOMSON        PTCLDY    77  71  80 CALM      29.95S
AUGUSTA-BUSH   PTCLDY    74  67  78 S5        29.89S
AUGUSTA-DANIEL CLEAR     78  65  63 S5        29.91S
SWAINSBORO     FAIR      73  70  88 CALM      29.93S
VIDALIA        CLEAR     73  72  94 CALM      29.94S
EASTMAN        FAIR      73  62  66 CALM      29.96R
HAZLEHURST     FAIR      74  72  91 CALM      29.92S
ALMA           CLEAR     72  70  93 CALM      29.93R
WAYCROSS       CLEAR     74  74  99 CALM      29.94R
JESUP          FAIR      72  72 100 CALM      29.94S FOG
BAXLEY         FAIR      72  72 100 CALM      29.93S
BRUNSWICK      PTCLDY    72  72 100 CALM      29.94S
SAINT SIMONS   PTCLDY    78  71  79 CALM      29.93R

$$

SCZ027-028-034-036>038-045-046-048>050-GAZ119-141-280400-
...LAKE AND SUPPLEMENTAL COASTAL OBSERVATIONS...

STATION/POSITION TIME  TEMP    WIND        PRES    WAVE   SWELL
                       AIR SEA DIR/SP/G            HT/PER HT/PER/DIR
                 (UTC) (F)     (DEG/KT/KT) (MB)    (FT/S) (FT/S/D)
WINYAH BAY       0230   73     300/  2     1012.0S
LAKE MURRAY      0250   75     290/  4/  6 1012.2S
ACE BASIN NERRS  0245   73        CALM     1013.0S
FORT PULASKI     0300   77 81  180/  1/  2 1013.7
SAPELO ISLAND    0300   75     160/  3     1014.0

$$

ANZ835-935-AMZ111-154-330-350-352-354-370-450-454-472-280400-
...C-MAN AND BUOY OBSERVATIONS...

STATION/POSITION TIME  TEMP    WIND        PRES    WAVE   SWELL
                       AIR SEA DIR/SP/G            HT/PER HT/PER/DIR
                 (UTC) (F)     (DEG/KT/KT) (MB)    (FT/S) (FT/S/D)
BUOY 41004       0250   80 82   80/  2/  4 1012.8R   3/12   2/100/12
BUOY 41008       0250   80 82  190/  4/  4 1013.5R   2/ 9   2/ 80/ 9
FOLLY BEACH CMAN 0300   79     190/  5/  5 1013.6R
CAPERS NEARSHORE 0208   80 81  180/  4/  6 1012.9R
FRIPP NEARSHORE  0208   79 81  160/  4/  8 1013.2R


STATION/POSITION TIME  TEMP    WIND        PRES    WAVE   SWELL
                       AIR SEA DIR/SP/G            HT/PER HT/PER/DIR
                 (UTC) (F)     (DEG/KT/KT) (MB)    (FT/S) (FT/S/D)
5E ST. MARYS GA  0301      82                N/A     2/13   2/ 90/13
FRYING PAN BUOY  0310   80 82   50/  4/  6 1012.5
BUOY 41025       0250   77 84   10/ 14/ 16 1011.7F   5/ 7   3/110/ 7
CAPE LOOKOUT NC  0300   76      10/  5/  5 1011.9F
BUOY 41002       0250   81 83  240/ 14/ 16 1012.7R   5/12   3/ 80/12
BUOY 41010       NOT AVBL
ST AUGUSTINE FL  0300   78 85  220/  6/  7 1015.0R


$$




USA.gov is the U.S. government's official web portal to all federal, state and local government web resources and services.